Location: Forestville
(38.4740°N, 122.8890°W)
Time: 06:34:07
(UTC-07:00)

Amateur Radio Satellites - All Passes

Search period start: 29 September 2016 06:04
Search period end: 30 September 2016 06:04
Location: Forestville, 38.4740°N, 122.8890°W

Satellite Date Start Highest point End Downlink Frequencies (MHz)
Time Altitude Azimuth
CUTE-I 29 Sep 06:10:48 06:12:42 12° 90° (E) 06:14:36 437.470
Cubesat XI-IV 29 Sep 06:11:09 06:13:01 12° 90° (E) 06:14:52 437.490
BRITE-PL 29 Sep 06:14:59 06:19:18 34° 96° (E) 06:23:18 437.365/2234.400
AO-85 29 Sep 06:15:36 06:19:43 76° 57° (ENE) 06:23:36 145.980
O/OREOS (USA 219) 29 Sep 06:16:07 06:18:02 13° 98° (E) 06:19:57 437.305
NOAA 18 29 Sep 07:01:57 07:06:43 30° 97° (E) 07:11:29 137.9125
STRAND 1 29 Sep 07:07:57 07:12:39 39° 70° (ENE) 07:17:23 437.568
CUSAT 1 29 Sep 07:09:55 07:17:14 54° 268° (W) 07:23:14 437.405
DANDE 29 Sep 07:11:11 07:19:38 73° 79° (E) 07:27:14 436.750
HORYU 2 29 Sep 07:11:17 07:15:12 31° 290° (WNW) 07:19:07 437.375
LilacSat-2 29 Sep 07:14:03 07:17:51 56° 100° (E) 07:21:38 437.200
NOAA 15 29 Sep 07:26:40 07:32:00 83° 104° (ESE) 07:37:17 137.62
GOMX 1 29 Sep 07:34:36 07:38:58 75° 285° (WNW) 07:43:07 467.674
AO-7 29 Sep 07:42:39 07:45:33 12° 314° (NW) 07:48:26 29.400- 29.500
CUTE-I 29 Sep 07:47:55 07:53:17 78° 285° (WNW) 07:58:38 437.470
DOVE 4 29 Sep 07:48:14 07:52:22 59° 101° (E) 07:56:27 437.250
Cubesat XI-IV 29 Sep 07:48:15 07:53:37 78° 286° (WNW) 07:58:59 437.490
GONETS M04 29 Sep 07:50:12 07:57:00 26° 82° (E) 08:03:47
O/OREOS (USA 219) 29 Sep 07:52:24 07:56:52 56° 294° (WNW) 08:01:25 437.305
BRITE-PL 29 Sep 07:54:01 07:57:30 21° 294° (WNW) 08:00:49 437.365/2234.400
RS-15 29 Sep 08:10:14 08:17:29 18° 263° (W) 08:24:39 29.354- 29.394
Cosmos 2499 29 Sep 08:29:03 08:35:19 34° 88° (E) 08:41:31 435.465 / 435.565
SEEDS 29 Sep 08:37:52 08:41:24 25° 95° (E) 08:44:55 437.485
CUTE 1.7 + AOD 2 29 Sep 08:38:57 08:42:59 38° 98° (E) 08:46:59 437.475
CANX-2 29 Sep 08:40:25 08:44:36 46° 99° (E) 08:48:44 2200.000
NOAA 18 29 Sep 08:42:29 08:47:20 33° 292° (WNW) 08:52:11 137.9125
STRAND 1 29 Sep 08:48:01 08:51:56 22° 266° (W) 08:55:53 437.568
CINEMA 3 29 Sep 08:48:40 08:52:51 71° 101° (E) 08:57:09 145.822/145.860
DANDE 29 Sep 08:55:21 09:01:31 24° 278° (W) 09:07:18 436.750
AAUSAT CUBESAT 2 29 Sep 08:56:07 08:59:20 21° 94° (E) 09:02:31 437.432
HO-68 29 Sep 09:00:18 09:07:24 64° 103° (ESE) 09:14:29 435.675
NOAA 15 29 Sep 09:08:52 09:11:01 13° 300° (WNW) 09:13:11 137.62
BEESAT 3 29 Sep 09:19:49 09:23:10 25° 51° (NE) 09:26:31 437.485
ANTELSAT 29 Sep 09:23:34 09:24:38 11° 63° (ENE) 09:25:42 437.575/2403.000
PRISM 29 Sep 09:25:14 09:29:24 79° 256° (WSW) 09:33:37 437.425
DOVE 4 29 Sep 09:28:41 09:29:31 11° 297° (WNW) 09:30:21 437.250
COMPASS 1 29 Sep 09:41:15 09:45:29 85° 283° (WNW) 09:49:41 437.405
TIGRISAT 29 Sep 09:41:49 09:44:31 17° 67° (ENE) 09:47:14 435.000
FUNcube-1 29 Sep 09:43:10 09:46:55 28° 96° (E) 09:50:44 145.935
GONETS M04 29 Sep 09:44:17 09:53:02 65° 280° (W) 10:01:51
CUBEBUG 2 29 Sep 09:45:21 09:49:41 81° 103° (ESE) 09:54:07 437.445
UWE-3 29 Sep 10:00:01 10:04:22 77° 101° (E) 10:08:50 435.000/436.395/437.385
DELFI C3 29 Sep 10:02:43 10:05:23 17° 93° (E) 10:08:02 145.870
SEEDS 29 Sep 10:13:30 10:17:00 25° 290° (WNW) 10:20:28 437.485
CUTE 1.7 + AOD 2 29 Sep 10:15:39 10:18:30 17° 293° (WNW) 10:21:20 437.475
CANX-2 29 Sep 10:17:39 10:20:02 15° 294° (WNW) 10:22:24 2200.000
BEESAT 2 29 Sep 10:18:20 10:22:16 52° 56° (NE) 10:26:11 435.950
Oscar 11 29 Sep 10:20:39 10:25:02 78° 103° (ESE) 10:29:23 145.826/435.025
UNISAT 6 29 Sep 10:21:21 10:25:28 49° 74° (ENE) 10:29:35 437.425
Cosmos 2499 29 Sep 10:21:48 10:28:17 37° 285° (WNW) 10:34:45 435.465 / 435.565
ZACube-1 29 Sep 10:25:41 10:30:03 87° 281° (W) 10:34:30 437.345
AAUSAT CUBESAT 2 29 Sep 10:31:11 10:34:47 28° 290° (WNW) 10:38:23 437.432
HUMSAT D 29 Sep 10:32:29 10:35:37 20° 94° (E) 10:38:45 437.325/437.525
PHONESAT 2.4 29 Sep 10:37:10 10:39:58 46° 158° (SSE) 10:42:49 2401.200-2431.200
JAS-2 29 Sep 10:39:36 10:43:30 16° 55° (NE) 10:47:38 435.910
HO-68 29 Sep 10:49:05 10:54:32 24° 300° (WNW) 10:59:59 435.675
ANTELSAT 29 Sep 10:56:34 11:00:48 63° 260° (W) 11:05:02 437.575/2403.000
BEESAT 3 29 Sep 10:57:25 11:00:45 26° 247° (WSW) 11:04:03 437.485
DUCHIFAT 1 29 Sep 11:11:36 11:14:36 19° 68° (ENE) 11:17:36 145.980
QB50P1 29 Sep 11:15:10 11:18:35 25° 69° (ENE) 11:21:59 145.935-145.965
TIGRISAT 29 Sep 11:16:56 11:20:54 38° 261° (W) 11:24:54 435.000
FUNcube-1 29 Sep 11:19:31 11:23:01 24° 291° (WNW) 11:26:35 145.935
AIST 2 29 Sep 11:19:36 11:20:37 11° 42° (NE) 11:21:38 435.215
POPSAT HIP 1 29 Sep 11:28:26 11:32:13 34° 71° (ENE) 11:36:00 437.405
DELFI C3 29 Sep 11:36:41 11:40:17 32° 288° (WNW) 11:43:50 145.870
ESTCUBE 1 29 Sep 11:40:09 11:43:08 17° 93° (E) 11:46:05 437.505/2401.250
NANOSAT C BR1 29 Sep 11:43:14 11:47:16 48° 74° (ENE) 11:51:18 145.865
GONETS M04 29 Sep 11:49:20 11:51:48 11° 302° (WNW) 11:54:17
BEESAT 2 29 Sep 11:57:59 11:59:37 12° 252° (WSW) 12:01:14 435.950
UNISAT 6 29 Sep 12:00:41 12:02:28 12° 268° (W) 12:04:14 437.425
HUMSAT D 29 Sep 12:07:27 12:11:16 32° 289° (WNW) 12:15:05 437.325/437.525
QB50P2 29 Sep 12:08:11 12:12:23 73° 258° (WSW) 12:16:35 145.880/145.840
POLYITAN 1 29 Sep 12:10:24 12:14:34 73° 258° (WSW) 12:18:47 437.675
PHONESAT 2.4 29 Sep 12:13:09 12:16:03 59° 354° (N) 12:18:58 2401.200-2431.200
JAS-2 29 Sep 12:20:49 12:27:16 87° 77° (ENE) 12:34:39 435.910
AISAT 29 Sep 12:24:21 12:28:00 25° 96° (E) 12:31:38 437.250
UKube-1 29 Sep 12:24:35 12:24:49 10° 91° (E) 12:25:02 .
50 SAT 29 Sep 12:34:42 12:37:53 28° 97° (E) 12:41:04 437.505
Oscar 19 29 Sep 12:40:36 12:44:09 19° 64° (ENE) 12:47:44 437.125/150
BUGSAT 1 29 Sep 12:40:51 12:44:58 86° 74° (ENE) 12:49:02 437.445
PCSat 29 Sep 12:42:14 12:46:17 21° 48° (NE) 12:50:19 145.827
DUCHIFAT 1 29 Sep 12:46:20 12:50:03 31° 262° (W) 12:53:48 145.980
QB50P1 29 Sep 12:50:47 12:54:15 25° 264° (W) 12:57:44 145.935-145.965
DX 1 29 Sep 12:53:26 12:57:18 31° 98° (E) 13:01:08 434.975-435.025
AIST 2 29 Sep 12:55:31 12:59:44 87° 66° (ENE) 13:03:55 435.215
POPSAT HIP 1 29 Sep 13:05:12 13:08:04 18° 266° (W) 13:10:57 437.405
CUBEBUG 1 29 Sep 13:06:49 13:11:10 81° 284° (WNW) 13:15:28 437.445
VELOX 1 29 Sep 13:07:14 13:11:39 76° 102° (ESE) 13:16:01 145.980
M-CUBED/EXP-1 PRIME 29 Sep 13:09:37 13:12:34 31° 103° (ESE) 13:15:34 437.505
ESTCUBE 1 29 Sep 13:15:50 13:20:05 41° 288° (WNW) 13:24:19 437.505/2401.250
NANOSAT C BR1 29 Sep 13:21:28 13:23:15 12° 268° (W) 13:25:02 145.865
Cosmos 2491 29 Sep 13:36:00 13:40:45 16° 77° (ENE) 13:45:31 435.465 / 435.565
YUBILEINY 29 Sep 13:37:46 13:45:31 34° 72° (ENE) 13:53:11 435.215
SPROUT 29 Sep 13:39:05 13:43:21 83° 285° (WNW) 13:47:36 437.525
PHONESAT 2.4 29 Sep 13:49:22 13:52:18 68° 10° (N) 13:55:14 2401.200-2431.200
Gurwin Techsat 1B 29 Sep 13:51:16 13:56:12 41° 70° (ENE) 14:01:10 435.225
UKube-1 29 Sep 13:56:58 14:01:14 62° 286° (WNW) 14:05:28 .
AISAT 29 Sep 14:00:45 14:04:23 26° 291° (WNW) 14:08:01 437.250
AUBIESAT-1 29 Sep 14:04:49 14:08:01 48° 290° (WNW) 14:11:15 437.475
50 SAT 29 Sep 14:08:48 14:11:09 16° 292° (WNW) 14:13:29 437.505
JAS-2 29 Sep 14:09:58 14:13:22 14° 275° (W) 14:16:57 435.910
Oscar 19 29 Sep 14:18:01 14:23:03 51° 260° (W) 14:28:08 437.125/150
PCSat 29 Sep 14:24:44 14:30:04 59° 247° (WSW) 14:35:21 145.827
DX 1 29 Sep 14:29:59 14:33:17 21° 293° (WNW) 14:36:34 434.975-435.025
ITUPSAT 1 29 Sep 14:30:53 14:32:42 12° 91° (E) 14:34:32 437.325
SWISSCUBE 29 Sep 14:41:37 14:44:57 19° 94° (E) 14:48:17 437.505
M-CUBED/EXP-1 PRIME 29 Sep 14:45:33 14:46:51 12° 298° (WNW) 14:48:08 437.505
SO-50 29 Sep 14:46:51 14:51:23 41° 115° (ESE) 14:55:54 436.795
AO-7 29 Sep 14:51:53 14:59:15 37° 61° (ENE) 15:06:37 29.400- 29.500
TISAT 1 29 Sep 14:52:46 14:56:54 63° 285° (WNW) 15:01:01 437.305
BEESAT 29 Sep 14:54:03 14:57:48 22° 95° (E) 15:01:31 436.000
ITAMSAT 1 29 Sep 15:15:04 15:20:12 72° 74° (ENE) 15:25:22 435.822/435.867
Cosmos 2504 29 Sep 15:15:05 15:22:25 54° 79° (E) 15:30:14 435.465 / 435.565
PHONESAT 2.4 29 Sep 15:25:36 15:28:18 32° 206° (SSW) 15:30:58 2401.200-2431.200
Cosmos 2491 29 Sep 15:27:25 15:36:13 88° 96° (E) 15:45:06 435.465 / 435.565
Gurwin Techsat 1B 29 Sep 15:32:10 15:36:16 23° 266° (W) 15:40:25 435.225
YUBILEINY 29 Sep 15:34:15 15:42:29 49° 271° (W) 15:50:41 435.215
AIST 1 29 Sep 15:56:01 15:59:15 21° 74° (ENE) 16:02:27
MOZHAYETS 4 29 Sep 16:03:37 16:07:06 21° 94° (E) 16:10:34
ITUPSAT 1 29 Sep 16:06:09 16:10:57 65° 286° (WNW) 16:15:42 437.325
KKS-1 29 Sep 16:15:34 16:18:16 16° 93° (E) 16:20:58 437.445
SWISSCUBE 29 Sep 16:18:23 16:22:55 43° 289° (WNW) 16:27:25 437.505
O/OREOS (USA 219) 29 Sep 16:25:19 16:28:49 21° 59° (ENE) 16:32:17 437.305
SO-50 29 Sep 16:28:01 16:32:00 25° 312° (NW) 16:35:56 436.795
BEESAT 29 Sep 16:31:17 16:35:37 35° 290° (WNW) 16:39:57 436.000
HORYU 2 29 Sep 16:32:21 16:35:20 18° 66° (ENE) 16:38:19 437.375
AO-7 29 Sep 16:43:48 16:51:46 49° 259° (WSW) 16:59:46 29.400- 29.500
STARS 29 Sep 16:43:58 16:46:29 15° 93° (E) 16:49:00 437.465
ITAMSAT 1 29 Sep 16:58:07 17:00:09 12° 269° (W) 17:02:12 435.822/435.867
GOMX 1 29 Sep 17:06:01 17:07:48 12° 63° (ENE) 17:09:34 467.674
NOAA 15 29 Sep 17:08:39 17:11:23 14° 61° (ENE) 17:14:07 137.62
Cosmos 2504 29 Sep 17:09:19 17:15:20 27° 275° (W) 17:21:40 435.465 / 435.565
BRITE-PL 29 Sep 17:22:47 17:28:03 41° 71° (ENE) 17:33:13 437.365/2234.400
Cosmos 2491 29 Sep 17:28:36 17:34:15 18° 296° (WNW) 17:39:58 435.465 / 435.565
CUBESAT XI-V 29 Sep 17:28:36 17:32:11 21° 94° (E) 17:35:45 437.345
CUTE-I 29 Sep 17:30:30 17:34:05 19° 63° (ENE) 17:37:39 437.470
Cubesat XI-IV 29 Sep 17:31:00 17:34:34 19° 63° (ENE) 17:38:09 437.490
AIST 1 29 Sep 17:33:11 17:36:50 28° 270° (W) 17:40:27
MOZHAYETS 4 29 Sep 17:40:05 17:44:19 36° 289° (WNW) 17:48:33
KKS-1 29 Sep 17:50:50 17:55:00 42° 288° (WNW) 17:59:11 437.445
LilacSat-2 29 Sep 17:55:10 17:58:05 22° 70° (ENE) 18:01:01 437.200
O/OREOS (USA 219) 29 Sep 18:04:06 18:08:20 37° 255° (WSW) 18:12:31 437.305
GONETS M04 29 Sep 18:05:12 18:06:15 10° 57° (ENE) 18:07:18
HORYU 2 29 Sep 18:07:27 18:11:34 39° 261° (W) 18:15:43 437.375
RS-15 29 Sep 18:09:05 18:15:44 17° 97° (E) 18:22:30 29.354- 29.394
STARS 29 Sep 18:18:53 18:23:02 43° 288° (WNW) 18:27:10 437.465
Cosmos 2499 29 Sep 18:24:07 18:25:12 10° 62° (ENE) 18:26:17 435.465 / 435.565
NOAA 18 29 Sep 18:26:39 18:31:55 50° 71° (ENE) 18:37:10 137.9125
CUSAT 1 29 Sep 18:27:02 18:32:18 28° 84° (E) 18:38:23 437.405
GOMX 1 29 Sep 18:39:48 18:45:12 86° 253° (WSW) 18:50:23 467.674
NOAA 15 29 Sep 18:45:13 18:50:29 73° 257° (WSW) 18:55:50 137.62
DOVE 4 29 Sep 18:51:25 18:56:17 54° 74° (ENE) 19:00:53 437.250
BRITE-PL 29 Sep 19:01:49 19:06:32 27° 266° (W) 19:11:13 437.365/2234.400
CUBESAT XI-V 29 Sep 19:05:23 19:09:37 35° 289° (WNW) 19:13:50 437.345
CUTE-I 29 Sep 19:08:28 19:13:39 54° 259° (W) 19:18:52 437.470
Cubesat XI-IV 29 Sep 19:09:00 19:14:10 54° 259° (W) 19:19:24 437.490
STRAND 1 29 Sep 19:21:08 19:24:03 15° 92° (E) 19:26:57 437.568
HO-68 29 Sep 19:27:19 19:33:55 41° 66° (ENE) 19:40:30 435.675
SEEDS 29 Sep 19:29:06 19:31:34 15° 66° (ENE) 19:34:02 437.485
LilacSat-2 29 Sep 19:29:20 19:32:17 22° 265° (W) 19:35:15 437.200
CUTE 1.7 + AOD 2 29 Sep 19:30:34 19:33:53 23° 69° (ENE) 19:37:15 437.475
CANX-2 29 Sep 19:31:56 19:35:32 27° 70° (ENE) 19:39:08 2200.000
AAUSAT CUBESAT 2 29 Sep 19:46:21 19:48:06 12° 65° (ENE) 19:49:52 437.432
CINEMA 3 29 Sep 19:48:41 19:53:01 53° 75° (ENE) 19:57:13 145.822/145.860
ISS 29 Sep 19:54:39 19:57:53 71° 139° (SE) 20:01:08 145.825
GONETS M04 29 Sep 19:56:25 20:05:09 61° 79° (E) 20:13:44
CUSAT 1 29 Sep 20:07:32 20:13:42 52° 285° (WNW) 20:21:12 437.405
NOAA 18 29 Sep 20:08:57 20:12:49 20° 266° (W) 20:16:42 137.9125
Cosmos 2499 29 Sep 20:12:04 20:19:41 66° 81° (E) 20:27:53 435.465 / 435.565
RS-15 29 Sep 20:14:31 20:26:02 80° 117° (ESE) 20:38:13 29.354- 29.394
DANDE 29 Sep 20:16:54 20:22:04 80° 96° (E) 20:28:59 436.750
AO-85 29 Sep 20:27:27 20:32:20 39° 115° (ESE) 20:36:57 145.980
COMPASS 1 29 Sep 20:30:09 20:34:11 51° 74° (ENE) 20:38:17 437.405
DOVE 4 29 Sep 20:31:19 20:34:10 15° 267° (W) 20:36:57 437.250
FUNcube-1 29 Sep 20:38:14 20:40:58 18° 67° (ENE) 20:43:44 145.935
CUBEBUG 2 29 Sep 20:42:03 20:46:08 53° 75° (ENE) 20:50:11 437.445
UWE-3 29 Sep 20:55:39 20:59:39 48° 74° (ENE) 21:03:39 435.000/436.395/437.385
STRAND 1 29 Sep 20:58:30 21:03:35 59° 287° (WNW) 21:08:38 437.568
SEEDS 29 Sep 21:02:54 21:06:53 42° 262° (W) 21:10:55 437.485
CUTE 1.7 + AOD 2 29 Sep 21:05:58 21:09:34 27° 264° (W) 21:13:14 437.475
CANX-2 29 Sep 21:07:59 21:11:20 23° 265° (W) 21:14:43 2200.000
PRISM 29 Sep 21:09:31 21:11:57 15° 93° (E) 21:14:23 437.425
Oscar 11 29 Sep 21:13:43 21:17:51 48° 74° (ENE) 21:22:01 145.826/435.025
HO-68 29 Sep 21:15:08 21:21:36 36° 262° (W) 21:28:07 435.675
AAUSAT CUBESAT 2 29 Sep 21:19:02 21:23:05 52° 260° (W) 21:27:12 437.432
ZACube-1 29 Sep 21:20:00 21:24:02 58° 75° (ENE) 21:28:08 437.345
HUMSAT D 29 Sep 21:24:12 21:25:32 11° 64° (ENE) 21:26:52 437.325/437.525
CINEMA 3 29 Sep 21:28:41 21:30:25 12° 268° (W) 21:32:09 145.822/145.860
ISS 29 Sep 21:32:22 21:34:40 18° 336° (NNW) 21:36:59 145.825
JUGNU 29 Sep 21:38:13 21:40:23 12° 180° (S) 21:42:33 437.505
GONETS M04 29 Sep 21:54:20 22:01:15 27° 278° (W) 22:08:08
DANDE 29 Sep 22:02:48 22:06:08 15° 302° (WNW) 22:09:54 436.750
Cosmos 2499 29 Sep 22:06:33 22:12:09 22° 277° (W) 22:18:02 435.465 / 435.565
AO-85 29 Sep 22:08:27 22:12:51 28° 309° (NW) 22:17:03 145.980
COMPASS 1 29 Sep 22:08:29 22:10:01 12° 269° (W) 22:11:35 437.405
FUNcube-1 29 Sep 22:13:12 22:16:57 34° 263° (W) 22:20:44 145.935
UNISAT 6 29 Sep 22:16:08 22:17:50 12° 91° (E) 22:19:33 437.425
DELFI C3 29 Sep 22:20:09 22:24:08 72° 259° (W) 22:28:09 145.870
CUBEBUG 2 29 Sep 22:21:57 22:23:03 11° 269° (W) 22:24:09 437.445
RS-15 29 Sep 22:29:27 22:39:54 35° 322° (NW) 22:50:49 29.354- 29.394
UWE-3 29 Sep 22:34:50 22:36:23 12° 269° (W) 22:37:56 435.000/436.395/437.385
ESTCUBE 1 29 Sep 22:39:04 22:41:28 14° 64° (ENE) 22:43:52 437.505/2401.250
SRMSAT 29 Sep 22:40:23 22:41:10 10° 172° (S) 22:41:57 437.500
PRISM 29 Sep 22:43:33 22:47:24 38° 289° (WNW) 22:51:11 437.425
ANTELSAT 29 Sep 22:49:34 22:53:26 29° 97° (E) 22:57:22 437.575/2403.000
Oscar 11 29 Sep 22:52:09 22:54:14 13° 269° (W) 22:56:19 145.826/435.025
HUMSAT D 29 Sep 22:56:38 23:00:38 55° 260° (W) 23:04:41 437.325/437.525
TIGRISAT 29 Sep 23:09:08 23:13:24 44° 99° (E) 23:17:44 435.000
50 SAT 29 Sep 23:12:05 23:13:01 11° 65° (ENE) 23:13:56 437.505
AUBIESAT-1 29 Sep 23:17:32 23:18:43 11° 62° (ENE) 23:19:55 437.475
SO-50 29 Sep 23:19:57 23:23:46 25° 48° (NE) 23:27:30 436.795
AISAT 29 Sep 23:20:38 23:23:54 20° 67° (ENE) 23:27:09 437.250
JAS-2 29 Sep 23:34:05 23:38:39 16° 87° (E) 23:43:03 435.910
DX 1 29 Sep 23:47:46 23:51:14 23° 68° (ENE) 23:54:42 434.975-435.025
UNISAT 6 29 Sep 23:50:29 23:54:51 58° 286° (WNW) 23:59:18 437.425
M-CUBED/EXP-1 PRIME 29 Sep 23:54:08 23:57:57 38° 68° (ENE) 00:01:29 437.505
QB50P2 29 Sep 23:55:16 23:58:22 20° 94° (E) 00:01:27 145.880/145.840
POLYITAN 1 29 Sep 23:57:27 00:00:33 20° 94° (E) 00:03:38 437.675
CUBEBUG 1 30 Sep 00:00:49 00:05:13 69° 75° (ENE) 00:09:36 437.445
VELOX 1 30 Sep 00:02:44 00:07:05 55° 74° (ENE) 00:11:26 145.980
BEESAT 2 30 Sep 00:10:52 00:12:33 12° 108° (ESE) 00:14:16 435.950
ESTCUBE 1 30 Sep 00:13:21 00:17:47 54° 260° (W) 00:22:15 437.505/2401.250
BUGSAT 1 30 Sep 00:25:43 00:27:35 13° 92° (E) 00:29:27 437.445
ANTELSAT 30 Sep 00:26:25 00:30:01 25° 291° (WNW) 00:33:40 437.575/2403.000
SRMSAT 30 Sep 00:27:23 00:29:24 12° 182° (S) 00:31:26 437.500
SPROUT 30 Sep 00:30:46 00:34:58 60° 75° (ENE) 00:39:10 437.525
DUCHIFAT 1 30 Sep 00:31:18 00:35:17 41° 99° (E) 00:39:15 145.980
QB50P1 30 Sep 00:35:56 00:40:05 55° 101° (E) 00:44:12 145.935-145.965
50 SAT 30 Sep 00:42:35 00:46:04 45° 261° (W) 00:49:35 437.505
BEESAT 3 30 Sep 00:45:32 00:49:23 71° 119° (ESE) 00:53:19 437.485
TIGRISAT 30 Sep 00:46:59 00:49:44 16° 294° (WNW) 00:52:31 435.000
ISS 30 Sep 00:48:30 00:49:58 12° 17° (NNE) 00:51:27 145.825
AUBIESAT-1 30 Sep 00:48:51 00:52:50 54° 254° (WSW) 00:56:32 437.475
UKube-1 30 Sep 00:49:32 00:53:52 89° 64° (ENE) 00:58:13 .
POPSAT HIP 1 30 Sep 00:49:39 00:53:52 80° 101° (ESE) 00:58:06 437.405
RS-15 30 Sep 00:49:58 00:57:51 19° 357° (N) 01:05:48 29.354- 29.394
AISAT 30 Sep 00:56:02 01:00:06 35° 262° (W) 01:04:12 437.250
SO-50 30 Sep 01:00:10 01:04:16 34° 246° (WSW) 01:08:17 436.795
NANOSAT C BR1 30 Sep 01:04:20 01:08:31 72° 285° (WNW) 01:12:42 145.865
JAS-2 30 Sep 01:16:39 01:24:35 89° 285° (WNW) 01:31:58 435.910
DX 1 30 Sep 01:23:28 01:27:16 29° 263° (W) 01:31:05 434.975-435.025
M-CUBED/EXP-1 PRIME 30 Sep 01:30:05 01:32:30 15° 260° (W) 01:34:49 437.505
QB50P2 30 Sep 01:30:27 01:34:12 31° 289° (WNW) 01:37:56 145.880/145.840
POLYITAN 1 30 Sep 01:32:38 01:36:22 31° 289° (WNW) 01:40:07 437.675
ITUPSAT 1 30 Sep 01:36:32 01:38:43 13° 62° (ENE) 01:40:52 437.325
Cosmos 2491 30 Sep 01:40:00 01:48:16 42° 74° (ENE) 01:56:26 435.465 / 435.565
VELOX 1 30 Sep 01:41:57 01:43:51 12° 269° (W) 01:45:44 145.980
TISAT 1 30 Sep 01:42:28 01:46:39 76° 76° (ENE) 01:50:50 437.305
BEESAT 2 30 Sep 01:46:05 01:49:54 49° 304° (NW) 01:53:46 435.950
SWISSCUBE 30 Sep 01:46:58 01:50:16 19° 65° (ENE) 01:53:37 437.505
BEESAT 30 Sep 01:59:15 02:02:55 23° 67° (ENE) 02:06:37 436.000
BUGSAT 1 30 Sep 01:59:21 02:03:10 43° 287° (WNW) 02:06:58 437.445
DUCHIFAT 1 30 Sep 02:08:07 02:10:37 16° 294° (WNW) 02:13:05 145.980
Gurwin Techsat 1B 30 Sep 02:09:47 02:13:24 18° 93° (E) 02:17:00 435.225
SPROUT 30 Sep 02:10:35 02:11:15 10° 269° (W) 02:11:54 437.525
QB50P1 30 Sep 02:13:41 02:15:22 12° 296° (WNW) 02:17:03 145.935-145.965
ISS 30 Sep 02:23:51 02:27:04 51° 35° (NE) 02:30:18 145.825
BEESAT 3 30 Sep 02:26:00 02:27:30 12° 316° (NW) 02:29:01 437.485
Oscar 19 30 Sep 02:30:53 02:36:00 63° 101° (ESE) 02:41:04 437.125/150
YUBILEINY 30 Sep 02:36:45 02:44:46 41° 87° (E) 02:52:45 435.215
AIST 2 30 Sep 02:52:08 02:55:29 25° 112° (ESE) 02:58:51 435.215
JAS-2 30 Sep 03:03:23 03:08:27 19° 303° (WNW) 03:13:23 435.910
MOZHAYETS 4 30 Sep 03:04:41 03:07:39 17° 66° (ENE) 03:10:38
RS-15 30 Sep 03:05:58 03:16:21 30° 32° (NNE) 03:26:36 29.354- 29.394
ITUPSAT 1 30 Sep 03:11:13 03:15:57 67° 258° (WSW) 03:20:43 437.325
KKS-1 30 Sep 03:13:07 03:15:14 13° 64° (ENE) 03:17:21 437.445
PCSat 30 Sep 03:22:54 03:26:58 22° 106° (ESE) 03:31:03 145.827
SWISSCUBE 30 Sep 03:23:13 03:27:43 43° 261° (W) 03:32:17 437.505
ITAMSAT 1 30 Sep 03:29:48 03:34:17 28° 96° (E) 03:38:44 435.822/435.867
BEESAT 30 Sep 03:36:08 03:40:28 35° 262° (W) 03:44:51 436.000
Cosmos 2491 30 Sep 03:36:57 03:45:00 41° 273° (W) 03:53:00 435.465 / 435.565
STARS 30 Sep 03:40:20 03:42:03 12° 63° (ENE) 03:43:47 437.465
Gurwin Techsat 1B 30 Sep 03:48:27 03:53:37 51° 288° (WNW) 03:58:44 435.225
Cosmos 2504 30 Sep 03:52:19 03:59:15 46° 90° (E) 04:06:00 435.465 / 435.565
ISS 30 Sep 04:01:18 04:03:16 15° 231° (SW) 04:05:13 145.825
Oscar 19 30 Sep 04:11:49 04:14:45 15° 298° (WNW) 04:17:41 437.125/150
AIST 1 30 Sep 04:25:02 04:27:11 14° 85° (E) 04:29:20
AIST 2 30 Sep 04:30:17 04:33:50 28° 309° (NW) 04:37:26 435.215
CUBESAT XI-V 30 Sep 04:30:50 04:34:06 19° 66° (ENE) 04:37:22 437.345
YUBILEINY 30 Sep 04:33:21 04:41:29 41° 286° (WNW) 04:49:37 435.215
MOZHAYETS 4 30 Sep 04:40:05 04:44:26 44° 261° (W) 04:48:50
AO-7 30 Sep 04:46:28 04:54:43 64° 104° (ESE) 05:02:55 29.400- 29.500
KKS-1 30 Sep 04:46:56 04:51:18 56° 259° (W) 04:55:41 437.445
AO-85 30 Sep 05:01:26 05:04:30 20° 47° (NE) 05:07:26 145.980
CUSAT 1 30 Sep 05:03:24 05:08:41 20° 62° (ENE) 05:13:22 437.405
PCSat 30 Sep 05:04:48 05:10:00 47° 303° (WNW) 05:15:15 145.827
ITAMSAT 1 30 Sep 05:09:04 05:13:43 33° 292° (WNW) 05:18:21 435.822/435.867
STARS 30 Sep 05:13:33 05:17:53 60° 259° (W) 05:22:13 437.465
DANDE 30 Sep 05:16:33 05:20:21 14° 58° (ENE) 05:24:03 436.750
RS-15 30 Sep 05:18:32 05:31:02 83° 59° (ENE) 05:43:08 29.354- 29.394
BRITE-PL 30 Sep 05:32:16 05:33:36 11° 88° (E) 05:34:54 437.365/2234.400
Cosmos 2504 30 Sep 05:46:34 05:52:46 29° 287° (WNW) 05:58:53 435.465 / 435.565
